| time (UTC) | temp F | wind direction | speed MPH | gust MPH | rain 1hr in | rain 24hr in | rain mn in | humidity % | barometer mb |
| 20260510200044 | 59 | 247 | 7.0 | 18.0 | 0.00 | 0.06 | 0.01 | 63 | 1012.2 |
| 20260510195533 | 58 | 219 | 7.0 | 16.0 | 0.00 | 0.13 | 0.01 | 63 | 1012.1 |
| 20260510195032 | 58 | 236 | 8.0 | 16.0 | 0.00 | 0.13 | 0.01 | 63 | 1012.1 |
| 20260510194545 | 58 | 244 | 7.0 | 16.0 | 0.00 | 0.13 | 0.01 | 65 | 1012.2 |
| 20260510194033 | 56 | 267 | 5.0 | 16.0 | 0.00 | 0.13 | 0.01 | 67 | 1012.3 |
| 20260510193531 | 56 | 205 | 8.0 | 16.0 | 0.00 | 0.13 | 0.01 | 69 | 1012.3 |
| 20260510193042 | 56 | 199 | 7.0 | 15.0 | 0.00 | 0.13 | 0.01 | 67 | 1012.4 |
| 20260510192531 | 57 | 217 | 6.0 | 15.0 | 0.00 | 0.13 | 0.01 | 68 | 1012.3 |
| 20260510192032 | 58 | 265 | 5.0 | 11.0 | 0.00 | 0.13 | 0.01 | 70 | 1012.4 |
| 20260510191545 | 58 | 245 | 6.0 | 21.0 | 0.00 | 0.13 | 0.01 | 68 | 1012.4 |
| 20260510191034 | 59 | 256 | 8.0 | 21.0 | 0.00 | 0.13 | 0.01 | 70 | 1012.4 |
| 20260510190531 | 58 | 279 | 7.0 | 20.0 | 0.00 | 0.13 | 0.01 | 69 | 1012.4 |
| 20260510190050 | 58 | 247 | 6.0 | 20.0 | 0.00 | 0.13 | 0.01 | 70 | 1012.5 |
| 20260510185533 | 58 | 217 | 7.0 | 20.0 | 0.00 | 0.27 | 0.01 | 72 | 1012.5 |
| 20260510185032 | 57 | 250 | 7.0 | 19.0 | 0.00 | 0.27 | 0.01 | 74 | 1012.5 |
| 20260510184544 | 56 | 240 | 8.0 | 20.0 | 0.00 | 0.27 | 0.01 | 75 | 1012.5 |
| 20260510184035 | 56 | 227 | 8.0 | 20.0 | 0.00 | 0.27 | 0.01 | 76 | 1012.5 |
| 20260510183533 | 55 | 246 | 8.0 | 19.0 | 0.00 | 0.27 | 0.01 | 78 | 1012.4 |
| 20260510183044 | 55 | 246 | 9.0 | 19.0 | 0.00 | 0.27 | 0.01 | 77 | 1012.4 |
| 20260510182535 | 56 | 257 | 6.0 | 20.0 | 0.00 | 0.27 | 0.01 | 76 | 1012.5 |
| 20260510182032 | 57 | 219 | 9.0 | 20.0 | 0.00 | 0.27 | 0.01 | 73 | 1012.4 |
| 20260510181541 | 58 | 225 | 7.0 | 17.0 | 0.00 | 0.27 | 0.01 | 74 | 1012.4 |
| 20260510181032 | 58 | 227 | 8.0 | 17.0 | 0.00 | 0.27 | 0.01 | 75 | 1012.3 |
| 20260510180532 | 58 | 242 | 7.0 | 17.0 | 0.00 | 0.27 | 0.01 | 76 | 1012.3 |
| 20260510180045 | 57 | 239 | 8.0 | 15.0 | 0.00 | 0.27 | 0.01 | 76 | 1012.2 |
| 20260510175531 | 57 | 257 | 9.0 | 15.0 | 0.00 | 0.40 | 0.01 | 76 | 1012.1 |
| 20260510175031 | 57 | 238 | 7.0 | 15.0 | 0.00 | 0.40 | 0.01 | 76 | 1012.0 |
| 20260510174545 | 57 | 203 | 8.0 | 15.0 | 0.00 | 0.40 | 0.01 | 75 | 1012.0 |
| 20260510174033 | 57 | 236 | 4.0 | 15.0 | 0.00 | 0.40 | 0.01 | 77 | 1012.1 |
| 20260510173532 | 56 | 250 | 7.0 | 16.0 | 0.00 | 0.40 | 0.01 | 76 | 1012.1 |
| 20260510173047 | 56 | 241 | 6.0 | 16.0 | 0.00 | 0.40 | 0.01 | 77 | 1012.0 |
| 20260510172532 | 57 | 240 | 8.0 | 16.0 | 0.00 | 0.40 | 0.01 | 76 | 1012.1 |
| 20260510172031 | 56 | 224 | 7.0 | 16.0 | 0.00 | 0.40 | 0.01 | 78 | 1012.0 |
| 20260510171543 | 56 | 236 | 7.0 | 16.0 | 0.00 | 0.40 | 0.01 | 79 | 1011.9 |
| 20260510171032 | 56 | 253 | 6.0 | 12.0 | 0.00 | 0.40 | 0.01 | 80 | 1012.0 |
| 20260510170534 | 55 | 250 | 5.0 | 15.0 | 0.00 | 0.40 | 0.01 | 82 | 1012.0 |
| 20260510170038 | 54 | 196 | 6.0 | 15.0 | 0.00 | 0.40 | 0.01 | 82 | 1012.0 |
| 20260510165532 | 54 | 248 | 7.0 | 15.0 | 0.00 | 0.51 | 0.01 | 82 | 1012.2 |
| 20260510165032 | 53 | 257 | 6.0 | 16.0 | 0.00 | 0.51 | 0.01 | 85 | 1012.2 |
| 20260510164548 | 52 | 260 | 7.0 | 16.0 | 0.00 | 0.51 | 0.01 | 86 | 1012.2 |
| 20260510164031 | 52 | 263 | 6.0 | 16.0 | 0.00 | 0.51 | 0.01 | 84 | 1012.4 |
| 20260510163535 | 52 | 228 | 6.0 | 16.0 | 0.00 | 0.51 | 0.01 | 84 | 1012.4 |
| 20260510163047 | 52 | 248 | 6.0 | 14.0 | 0.00 | 0.51 | 0.01 | 83 | 1012.4 |
| 20260510162535 | 52 | 265 | 6.0 | 14.0 | 0.00 | 0.51 | 0.01 | 83 | 1012.3 |
| 20260510162031 | 53 | 261 | 6.0 | 13.0 | 0.00 | 0.51 | 0.01 | 82 | 1012.3 |
| 20260510161546 | 53 | 248 | 5.0 | 11.0 | 0.00 | 0.51 | 0.01 | 81 | 1012.3 |
| 20260510161032 | 53 | 238 | 5.0 | 11.0 | 0.00 | 0.51 | 0.01 | 81 | 1012.1 |
| 20260510160533 | 54 | 251 | 6.0 | 12.0 | 0.00 | 0.51 | 0.01 | 79 | 1012.2 |
| 20260510160043 | 55 | 234 | 6.0 | 12.0 | 0.00 | 0.51 | 0.01 | 79 | 1012.1 |
| 20260510155532 | 55 | 259 | 6.0 | 12.0 | 0.00 | 0.62 | 0.01 | 78 | 1012.0 |
| 20260510155029 | 56 | 189 | 5.0 | 15.0 | 0.00 | 0.62 | 0.01 | 78 | 1012.0 |
| 20260510154541 | 56 | 250 | 8.0 | 18.0 | 0.00 | 0.62 | 0.01 | 75 | 1011.9 |
| 20260510154031 | 58 | 263 | 7.0 | 18.0 | 0.00 | 0.62 | 0.01 | 74 | 1011.9 |
| 20260510153531 | 58 | 247 | 6.0 | 20.0 | 0.00 | 0.62 | 0.01 | 75 | 1011.7 |
| 20260510153039 | 57 | 243 | 6.0 | 20.0 | 0.00 | 0.62 | 0.01 | 77 | 1011.6 |
| 20260510152533 | 57 | 275 | 8.0 | 15.0 | 0.00 | 0.62 | 0.01 | 77 | 1011.6 |
| 20260510152031 | 56 | 260 | 5.0 | 11.0 | 0.00 | 0.62 | 0.01 | 78 | 1011.6 |
| 20260510151544 | 57 | 248 | 4.0 | 12.0 | 0.00 | 0.62 | 0.01 | 79 | 1011.6 |
| 20260510151032 | 56 | 196 | 4.0 | 12.0 | 0.00 | 0.62 | 0.01 | 78 | 1011.6 |
| 20260510150534 | 55 | 231 | 6.0 | 18.0 | 0.00 | 0.62 | 0.01 | 76 | 1011.4 |
| 20260510150053 | 55 | 217 | 7.0 | 18.0 | 0.00 | 0.62 | 0.01 | 76 | 1011.4 |
| 20260510145532 | 56 | 234 | 5.0 | 16.0 | 0.00 | 0.68 | 0.01 | 78 | 1011.3 |
| 20260510145031 | 56 | 246 | 5.0 | 17.0 | 0.00 | 0.68 | 0.01 | 78 | 1011.3 |
| 20260510144603 | 57 | 176 | 5.0 | 17.0 | 0.00 | 0.68 | 0.01 | 79 | 1011.2 |
| 20260510144033 | 58 | 164 | 7.0 | 17.0 | 0.00 | 0.68 | 0.01 | 75 | 1011.1 |
| 20260510143531 | 58 | 252 | 6.0 | 17.0 | 0.00 | 0.68 | 0.01 | 76 | 1011.2 |
| 20260510143056 | 57 | 229 | 6.0 | 15.0 | 0.00 | 0.68 | 0.01 | 77 | 1011.1 |
| 20260510142531 | 57 | 184 | 5.0 | 13.0 | 0.00 | 0.68 | 0.01 | 80 | 1011.2 |
| 20260510142031 | 56 | 207 | 5.0 | 11.0 | 0.00 | 0.68 | 0.01 | 81 | 1011.2 |
| 20260510141544 | 56 | 196 | 3.0 | 21.0 | 0.00 | 0.68 | 0.01 | 81 | 1011.2 |
| 20260510141035 | 55 | 216 | 4.0 | 21.0 | 0.00 | 0.68 | 0.01 | 78 | 1011.1 |
| 20260510140531 | 56 | 252 | 6.0 | 21.0 | 0.00 | 0.68 | 0.01 | 79 | 1010.9 |
| 20260510140047 | 55 | 209 | 4.0 | 15.0 | 0.00 | 0.68 | 0.01 | 85 | 1010.9 |
| 20260510135533 | 55 | 0 | 4.0 | 12.0 | 0.00 | 0.75 | 0.01 | 91 | 1011.0 |
| 20260510135032 | 54 | 272 | 3.0 | 12.0 | 0.00 | 0.75 | 0.01 | 95 | 1010.9 |
| 20260510134602 | 53 | 249 | 0.0 | 4.0 | 0.00 | 0.75 | 0.01 | 97 | 1011.0 |
| 20260510134031 | 52 | 82 | 1.0 | 4.0 | 0.00 | 0.75 | 0.01 | 98 | 1011.0 |
| 20260510133533 | 51 | 0 | 1.0 | 4.0 | 0.00 | 0.75 | 0.01 | 98 | 1011.0 |
| 20260510133043 | 50 | 238 | 1.0 | 4.0 | 0.00 | 0.75 | 0.01 | 98 | 1011.1 |
| 20260510132531 | 49 | 68 | 2.0 | 6.0 | 0.00 | 0.75 | 0.01 | 98 | 1011.1 |
| 20260510132032 | 49 | 62 | 2.0 | 6.0 | 0.00 | 0.75 | 0.01 | 98 | 1011.1 |
| 20260510131546 | 49 | 90 | 1.0 | 4.0 | 0.00 | 0.75 | 0.01 | 98 | 1011.1 |
| 20260510131034 | 48 | 59 | 1.0 | 7.0 | 0.00 | 0.75 | 0.01 | 98 | 1011.2 |
| 20260510130531 | 48 | 48 | 2.0 | 7.0 | 0.00 | 0.75 | 0.01 | 98 | 1011.2 |
| 20260510130044 | 48 | 73 | 3.0 | 6.0 | 0.00 | 0.75 | 0.01 | 98 | 1011.2 |
| 20260510125532 | 48 | 0 | 0.0 | 4.0 | 0.00 | 0.77 | 0.01 | 98 | 1011.2 |
| 20260510125032 | 49 | 0 | 0.0 | 5.0 | 0.00 | 0.77 | 0.01 | 98 | 1011.3 |
| 20260510124554 | 48 | 55 | 1.0 | 5.0 | 0.00 | 0.77 | 0.01 | 98 | 1011.0 |
| 20260510124032 | 48 | 51 | 2.0 | 9.0 | 0.00 | 0.77 | 0.01 | 98 | 1011.0 |
| 20260510123532 | 48 | 34 | 2.0 | 9.0 | 0.00 | 0.77 | 0.01 | 98 | 1011.0 |
| 20260510123046 | 48 | 40 | 4.0 | 9.0 | 0.00 | 0.77 | 0.01 | 98 | 1011.0 |
| 20260510122532 | 48 | 68 | 3.0 | 9.0 | 0.00 | 0.77 | 0.01 | 98 | 1010.9 |
| 20260510122031 | 47 | 108 | 2.0 | 8.0 | 0.00 | 0.77 | 0.01 | 98 | 1010.9 |
| 20260510121545 | 46 | 73 | 2.0 | 10.0 | 0.00 | 0.77 | 0.01 | 98 | 1010.9 |
| 20260510121033 | 46 | 69 | 4.0 | 10.0 | 0.00 | 0.77 | 0.01 | 98 | 1010.9 |
| 20260510120532 | 46 | 89 | 4.0 | 7.0 | 0.00 | 0.77 | 0.01 | 98 | 1010.9 |
| 20260510120046 | 46 | 55 | 3.0 | 7.0 | 0.00 | 0.77 | 0.01 | 98 | 1010.9 |
| 20260510115531 | 45 | 93 | 4.0 | 9.0 | 0.00 | 0.77 | 0.01 | 98 | 1011.0 |
| 20260510115031 | 45 | 80 | 3.0 | 9.0 | 0.00 | 0.77 | 0.01 | 98 | 1011.0 |
| 20260510114543 | 45 | 78 | 3.0 | 7.0 | 0.00 | 0.77 | 0.01 | 98 | 1010.8 |
| 20260510114031 | 45 | 80 | 2.0 | 7.0 | 0.00 | 0.77 | 0.01 | 98 | 1010.9 |
| 20260510113532 | 45 | 64 | 1.0 | 7.0 | 0.00 | 0.77 | 0.01 | 98 | 1011.0 |
| 20260510113043 | 45 | 91 | 2.0 | 6.0 | 0.00 | 0.77 | 0.01 | 98 | 1010.9 |
| 20260510112531 | 45 | 56 | 2.0 | 5.0 | 0.00 | 0.77 | 0.01 | 98 | 1010.9 |
| 20260510112033 | 45 | 57 | 2.0 | 8.0 | 0.00 | 0.77 | 0.01 | 98 | 1010.9 |
| 20260510111555 | 45 | 70 | 3.0 | 8.0 | 0.00 | 0.77 | 0.01 | 98 | 1010.9 |
| 20260510111032 | 45 | 71 | 2.0 | 8.0 | 0.01 | 0.77 | 0.01 | 98 | 1010.9 |
| 20260510110530 | 45 | 77 | 2.0 | 7.0 | 0.01 | 0.77 | 0.01 | 98 | 1010.7 |
| 20260510110045 | 45 | 63 | 2.0 | 7.0 | 0.01 | 0.77 | 0.01 | 98 | 1010.7 |
| 20260510105530 | 45 | 108 | 2.0 | 7.0 | 0.01 | 0.77 | 0.01 | 98 | 1010.5 |
| 20260510105028 | 45 | 81 | 2.0 | 6.0 | 0.01 | 0.77 | 0.01 | 98 | 1010.3 |
| 20260510104604 | 45 | 64 | 3.0 | 6.0 | 0.01 | 0.77 | 0.01 | 98 | 1010.1 |
| 20260510104029 | 45 | 65 | 2.0 | 6.0 | 0.01 | 0.77 | 0.01 | 98 | 1010.1 |
| 20260510103529 | 45 | 21 | 3.0 | 7.0 | 0.01 | 0.77 | 0.01 | 98 | 1010.0 |
| 20260510103044 | 45 | 153 | 3.0 | 9.0 | 0.01 | 0.77 | 0.01 | 98 | 1009.9 |
| 20260510102529 | 45 | 88 | 5.0 | 9.0 | 0.01 | 0.77 | 0.01 | 98 | 1009.9 |
| 20260510102031 | 45 | 92 | 2.0 | 10.0 | 0.01 | 0.77 | 0.01 | 98 | 1010.0 |
| 20260510101546 | 45 | 103 | 5.0 | 10.0 | 0.01 | 0.77 | 0.01 | 98 | 1009.9 |
| 20260510101029 | 45 | 93 | 2.0 | 10.0 | 0.00 | 0.76 | 0.00 | 98 | 1009.8 |
| 20260510100532 | 45 | 126 | 2.0 | 11.0 | 0.00 | 0.76 | 0.00 | 98 | 1009.7 |
| 20260510100043 | 45 | 64 | 5.0 | 11.0 | 0.00 | 0.76 | 0.00 | 97 | 1009.6 |
| 20260510095529 | 45 | 178 | 3.0 | 10.0 | 0.00 | 0.76 | 0.00 | 97 | 1009.5 |
| 20260510095029 | 45 | 138 | 5.0 | 10.0 | 0.00 | 0.76 | 0.00 | 97 | 1009.3 |
| 20260510094546 | 45 | 130 | 3.0 | 9.0 | 0.00 | 0.76 | 0.00 | 98 | 1009.2 |
| 20260510094029 | 45 | 132 | 3.0 | 7.0 | 0.00 | 0.76 | 0.00 | 98 | 1009.2 |
| 20260510093530 | 45 | 182 | 2.0 | 6.0 | 0.00 | 0.76 | 0.00 | 98 | 1009.2 |
| 20260510093044 | 45 | 0 | 1.0 | 4.0 | 0.00 | 0.76 | 0.00 | 98 | 1009.2 |
| 20260510092529 | 45 | 63 | 1.0 | 3.0 | 0.00 | 0.76 | 0.00 | 98 | 1009.1 |
| 20260510092032 | 45 | 0 | 0.0 | 5.0 | 0.00 | 0.76 | 0.00 | 98 | 1009.2 |
| 20260510091543 | 45 | 0 | 1.0 | 5.0 | 0.00 | 0.76 | 0.00 | 98 | 1009.2 |
| 20260510091028 | 45 | 175 | 0.0 | 4.0 | 0.00 | 0.76 | 0.00 | 98 | 1009.3 |
| 20260510090530 | 45 | 0 | 0.0 | 3.0 | 0.00 | 0.76 | 0.00 | 98 | 1009.2 |
| 20260510090056 | 45 | 106 | 1.0 | 5.0 | 0.00 | 0.76 | 0.00 | 98 | 1009.1 |
| 20260510085531 | 45 | 56 | 2.0 | 5.0 | 0.00 | 0.76 | 0.00 | 97 | 1009.0 |
| 20260510085029 | 45 | 62 | 1.0 | 3.0 | 0.00 | 0.76 | 0.00 | 97 | 1009.1 |
| 20260510084542 | 45 | 0 | 0.0 | 6.0 | 0.00 | 0.76 | 0.00 | 97 | 1009.1 |
| 20260510084029 | 46 | 178 | 2.0 | 6.0 | 0.00 | 0.76 | 0.00 | 98 | 1009.0 |
| 20260510083532 | 46 | 194 | 0.0 | 10.0 | 0.00 | 0.76 | 0.00 | 98 | 1008.9 |
| 20260510083039 | 46 | 219 | 3.0 | 10.0 | 0.00 | 0.76 | 0.00 | 98 | 1009.3 |
| 20260510082530 | 46 | 255 | 3.0 | 15.0 | 0.00 | 0.76 | 0.00 | 98 | 1009.3 |
| 20260510082029 | 46 | 217 | 5.0 | 15.0 | 0.00 | 0.76 | 0.00 | 98 | 1009.4 |
| 20260510081558 | 46 | 259 | 5.0 | 12.0 | 0.00 | 0.76 | 0.00 | 98 | 1009.5 |
| 20260510081029 | 46 | 252 | 4.0 | 10.0 | 0.00 | 0.76 | 0.00 | 98 | 1009.5 |
| 20260510080532 | 46 | 229 | 5.0 | 10.0 | 0.00 | 0.76 | 0.00 | 98 | 1009.4 |
| 20260510080046 | 46 | 190 | 3.0 | 12.0 | 0.00 | 0.76 | 0.00 | 98 | 1009.6 |
| 20260510075531 | 46 | 205 | 5.0 | 12.0 | 0.00 | 0.76 | 0.00 | 98 | 1009.6 |
| 20260510075030 | 46 | 236 | 3.0 | 12.0 | 0.00 | 0.76 | 0.00 | 98 | 1009.6 |
| 20260510074543 | 46 | 225 | 3.0 | 12.0 | 0.00 | 0.76 | 0.00 | 98 | 1009.5 |
| 20260510074032 | 45 | 226 | 3.0 | 11.0 | 0.00 | 0.76 | 0.00 | 98 | 1009.5 |
| 20260510073534 | 45 | 242 | 6.0 | 18.0 | 0.00 | 0.76 | 0.00 | 98 | 1009.7 |
| 20260510073044 | 45 | 209 | 3.0 | 18.0 | 0.00 | 0.76 | 0.00 | 98 | 1009.6 |
| 20260510072529 | 45 | 176 | 4.0 | 9.0 | 0.00 | 0.76 | 0.00 | 98 | 1009.6 |
| 20260510072029 | 45 | 150 | 3.0 | 14.0 | 0.00 | 0.76 | 0.00 | 98 | 1009.6 |
| 20260510071552 | 45 | 215 | 4.0 | 14.0 | 0.00 | 0.76 | 0.00 | 98 | 1009.6 |
| 20260510071029 | 44 | 223 | 2.0 | 8.0 | 0.00 | 0.76 | 0.00 | 97 | 1009.5 |
| 20260510070532 | 44 | 136 | 1.0 | 5.0 | 0.00 | 0.76 | 0.00 | 98 | 1009.4 |
| 20260510070043 | 44 | 186 | 0.0 | 4.0 | 0.00 | 0.76 | 0.00 | 98 | 1009.4 |
| 20260510065532 | 44 | 0 | 0.0 | 4.0 | 0.00 | 0.76 | 0.00 | 98 | 1009.4 |
| 20260510065030 | 44 | 76 | 0.0 | 4.0 | 0.00 | 0.76 | 0.00 | 98 | 1009.4 |
| 20260510064546 | 44 | 0 | 1.0 | 5.0 | 0.00 | 0.76 | 0.00 | 98 | 1009.2 |
| 20260510064029 | 44 | 0 | 1.0 | 6.0 | 0.00 | 0.76 | 0.00 | 98 | 1009.3 |
| 20260510063529 | 44 | 148 | 2.0 | 6.0 | 0.00 | 0.76 | 0.00 | 97 | 1009.4 |
| 20260510063045 | 44 | 131 | 1.0 | 7.0 | 0.00 | 0.76 | 0.00 | 98 | 1009.4 |
| 20260510062531 | 44 | 95 | 3.0 | 7.0 | 0.00 | 0.76 | 0.00 | 98 | 1009.4 |
| 20260510062031 | 44 | 41 | 1.0 | 6.0 | 0.00 | 0.76 | 0.00 | 98 | 1009.5 |
| 20260510061543 | 44 | 121 | 2.0 | 10.0 | 0.00 | 0.76 | 0.00 | 97 | 1009.5 |
| 20260510061032 | 44 | 142 | 2.0 | 10.0 | 0.00 | 0.76 | 0.00 | 97 | 1009.6 |
| 20260510060532 | 44 | 153 | 4.0 | 10.0 | 0.00 | 0.76 | 0.00 | 98 | 1009.6 |
| 20260510060053 | 44 | 102 | 5.0 | 9.0 | 0.00 | 0.76 | 0.00 | 97 | 1009.6 |
| 20260510055531 | 44 | 104 | 4.0 | 11.0 | 0.00 | 0.76 | 0.00 | 97 | 1009.5 |
| 20260510055031 | 44 | 82 | 5.0 | 11.0 | 0.00 | 0.76 | 0.00 | 97 | 1009.5 |
| 20260510054547 | 44 | 120 | 3.0 | 9.0 | 0.00 | 0.76 | 0.00 | 97 | 1009.5 |
| 20260510054031 | 44 | 96 | 3.0 | 9.0 | 0.00 | 0.76 | 0.00 | 97 | 1009.4 |
| 20260510053529 | 44 | 77 | 4.0 | 9.0 | 0.00 | 0.76 | 0.00 | 97 | 1009.5 |
| 20260510053052 | 44 | 69 | 3.0 | 9.0 | 0.00 | 0.76 | 0.00 | 97 | 1009.5 |
| 20260510052529 | 44 | 59 | 3.0 | 11.0 | 0.00 | 0.76 | 0.00 | 97 | 1009.6 |
| 20260510052032 | 44 | 62 | 4.0 | 11.0 | 0.00 | 0.76 | 0.00 | 97 | 1009.5 |
| 20260510051611 | 44 | 111 | 4.0 | 11.0 | 0.00 | 0.76 | 0.00 | 97 | 1009.7 |
| 20260510051031 | 44 | 119 | 5.0 | 11.0 | 0.00 | 0.76 | 0.00 | 97 | 1009.6 |
| 20260510050528 | 44 | 93 | 6.0 | 11.0 | 0.00 | 0.76 | 0.00 | 97 | 1009.6 |
| 20260510050044 | 44 | 90 | 2.0 | 11.0 | 0.00 | 0.76 | 0.00 | 97 | 1009.6 |
| 20260510045531 | 44 | 128 | 4.0 | 11.0 | 0.00 | 0.76 | 0.00 | 97 | 1009.7 |
| 20260510045029 | 44 | 109 | 4.0 | 9.0 | 0.00 | 0.76 | 0.00 | 97 | 1009.8 |
| 20260510044546 | 44 | 129 | 3.0 | 8.0 | 0.00 | 0.76 | 0.00 | 97 | 1009.8 |
| 20260510044035 | 44 | 180 | 2.0 | 9.0 | 0.00 | 0.76 | 0.00 | 97 | 1009.7 |
| 20260510043531 | 44 | 133 | 2.0 | 10.0 | 0.00 | 0.76 | 0.00 | 97 | 1009.7 |
| 20260510043120 | 44 | 150 | 4.0 | 10.0 | 0.00 | 0.76 | 0.00 | 97 | 1009.7 |
| 20260510042531 | 44 | 173 | 5.0 | 10.0 | 0.00 | 0.76 | 0.00 | 97 | 1009.8 |
| 20260510042030 | 44 | 111 | 3.0 | 10.0 | 0.00 | 0.76 | 0.00 | 97 | 1009.8 |
| 20260510041551 | 44 | 224 | 3.0 | 10.0 | 0.00 | 0.76 | 0.00 | 97 | 1009.8 |
| 20260510041031 | 44 | 136 | 3.0 | 12.0 | 0.00 | 0.76 | 0.00 | 97 | 1009.7 |
| 20260510040531 | 44 | 119 | 4.0 | 12.0 | 0.00 | 0.76 | 0.00 | 97 | 1009.7 |
| 20260510040051 | 44 | 134 | 4.0 | 12.0 | 0.00 | 0.76 | 0.00 | 97 | 1009.7 |
| 20260510035532 | 44 | 169 | 2.0 | 10.0 | 0.00 | 0.76 | 0.76 | 97 | 1009.8 |
| 20260510035032 | 44 | 130 | 4.0 | 10.0 | 0.00 | 0.76 | 0.76 | 97 | 1009.9 |
| 20260510034543 | 44 | 229 | 4.0 | 10.0 | 0.00 | 0.76 | 0.76 | 97 | 1010.0 |
| 20260510034028 | 44 | 211 | 3.0 | 9.0 | 0.01 | 0.76 | 0.76 | 97 | 1010.0 |
| 20260510033530 | 44 | 115 | 3.0 | 8.0 | 0.01 | 0.76 | 0.76 | 97 | 1009.9 |
| 20260510033050 | 44 | 132 | 2.0 | 9.0 | 0.01 | 0.76 | 0.76 | 97 | 1009.9 |
| 20260510032530 | 44 | 141 | 3.0 | 10.0 | 0.01 | 0.76 | 0.76 | 97 | 1010.0 |
| 20260510032028 | 44 | 144 | 4.0 | 10.0 | 0.01 | 0.76 | 0.76 | 97 | 1010.0 |
| 20260510031613 | 44 | 145 | 2.0 | 7.0 | 0.01 | 0.76 | 0.76 | 97 | 1010.0 |
| 20260510031032 | 44 | 178 | 2.0 | 7.0 | 0.01 | 0.76 | 0.76 | 97 | 1009.8 |
| 20260510030531 | 44 | 0 | 2.0 | 7.0 | 0.01 | 0.76 | 0.76 | 97 | 1009.9 |
| 20260510030045 | 44 | 172 | 2.0 | 9.0 | 0.01 | 0.76 | 0.76 | 97 | 1009.9 |
| 20260510025532 | 44 | 187 | 2.0 | 9.0 | 0.01 | 0.76 | 0.76 | 97 | 1009.9 |
| 20260510025034 | 44 | 200 | 3.0 | 9.0 | 0.01 | 0.76 | 0.76 | 97 | 1009.9 |
| 20260510024545 | 44 | 133 | 1.0 | 9.0 | 0.01 | 0.76 | 0.76 | 97 | 1009.8 |
| 20260510024031 | 44 | 0 | 3.0 | 9.0 | 0.00 | 0.75 | 0.75 | 97 | 1009.9 |
| 20260510023531 | 44 | 116 | 3.0 | 8.0 | 0.00 | 0.75 | 0.75 | 97 | 1010.0 |
| 20260510023053 | 43 | 132 | 2.0 | 8.0 | 0.00 | 0.75 | 0.75 | 97 | 1009.9 |
| 20260510022529 | 43 | 101 | 2.0 | 7.0 | 0.00 | 0.75 | 0.75 | 97 | 1009.8 |
| 20260510022031 | 43 | 134 | 2.0 | 8.0 | 0.00 | 0.75 | 0.75 | 97 | 1010.0 |
| 20260510021547 | 43 | 0 | 3.0 | 8.0 | 0.00 | 0.75 | 0.75 | 97 | 1010.0 |
| 20260510021030 | 43 | 155 | 3.0 | 10.0 | 0.00 | 0.75 | 0.75 | 97 | 1010.1 |
| 20260510020530 | 43 | 188 | 3.0 | 10.0 | 0.00 | 0.75 | 0.75 | 97 | 1010.2 |
| 20260510020049 | 43 | 166 | 4.0 | 10.0 | 0.00 | 0.75 | 0.75 | 97 | 1010.1 |
| 20260510015528 | 43 | 141 | 3.0 | 10.0 | 0.00 | 0.75 | 0.75 | 97 | 1010.3 |
| 20260510015028 | 43 | 122 | 5.0 | 10.0 | 0.00 | 0.75 | 0.75 | 97 | 1010.3 |
| 20260510014547 | 43 | 119 | 3.0 | 10.0 | 0.00 | 0.75 | 0.75 | 97 | 1010.2 |
| 20260510014031 | 43 | 163 | 1.0 | 7.0 | 0.00 | 0.75 | 0.75 | 97 | 1010.1 |
| 20260510013530 | 43 | 80 | 2.0 | 6.0 | 0.00 | 0.75 | 0.75 | 97 | 1010.1 |
| 20260510013045 | 43 | 127 | 1.0 | 8.0 | 0.00 | 0.75 | 0.75 | 97 | 1009.9 |
| 20260510012531 | 43 | 0 | 1.0 | 8.0 | 0.00 | 0.75 | 0.75 | 97 | 1010.1 |
| 20260510012031 | 43 | 100 | 1.0 | 6.0 | 0.00 | 0.75 | 0.75 | 97 | 1010.1 |
| 20260510011556 | 43 | 100 | 2.0 | 6.0 | 0.00 | 0.75 | 0.75 | 97 | 1010.2 |
| 20260510011030 | 43 | 0 | 1.0 | 4.0 | 0.00 | 0.75 | 0.75 | 97 | 1010.2 |
| 20260510010532 | 43 | 125 | 1.0 | 4.0 | 0.00 | 0.75 | 0.75 | 97 | 1010.1 |
| 20260510010045 | 43 | 116 | 0.0 | 3.0 | 0.00 | 0.75 | 0.75 | 97 | 1010.0 |
| 20260510005528 | 43 | 137 | 0.0 | 3.0 | 0.00 | 0.75 | 0.75 | 97 | 1010.0 |
| 20260510005031 | 43 | 0 | 0.0 | 4.0 | 0.00 | 0.75 | 0.75 | 97 | 1009.9 |
| 20260510004547 | 43 | 0 | 1.0 | 5.0 | 0.00 | 0.75 | 0.75 | 97 | 1009.9 |
| 20260510004032 | 43 | 124 | 0.0 | 7.0 | 0.00 | 0.75 | 0.75 | 97 | 1009.8 |
| 20260510003531 | 43 | 131 | 1.0 | 8.0 | 0.00 | 0.75 | 0.75 | 97 | 1009.8 |
| 20260510003048 | 43 | 147 | 4.0 | 8.0 | 0.00 | 0.75 | 0.75 | 97 | 1009.8 |
| 20260510002528 | 43 | 76 | 1.0 | 6.0 | 0.00 | 0.75 | 0.75 | 97 | 1009.6 |
| 20260510002031 | 43 | 101 | 2.0 | 6.0 | 0.00 | 0.75 | 0.75 | 97 | 1009.7 |
| 20260510001543 | 43 | 126 | 2.0 | 7.0 | 0.00 | 0.75 | 0.75 | 97 | 1009.6 |
| 20260510001031 | 43 | 143 | 2.0 | 7.0 | 0.00 | 0.75 | 0.75 | 97 | 1009.5 |
| 20260510000532 | 43 | 95 | 1.0 | 10.0 | 0.00 | 0.75 | 0.75 | 97 | 1009.4 |
| 20260510000048 | 43 | 78 | 2.0 | 10.0 | 0.00 | 0.75 | 0.75 | 97 | 1009.4 |
| 20260509235533 | 43 | 118 | 3.0 | 10.0 | 0.00 | 0.75 | 0.75 | 97 | 1009.4 |
| 20260509235033 | 43 | 90 | 2.0 | 8.0 | 0.00 | 0.75 | 0.75 | 97 | 1009.4 |
| 20260509234543 | 43 | 96 | 2.0 | 7.0 | 0.00 | 0.75 | 0.75 | 97 | 1009.2 |
| 20260509234031 | 43 | 65 | 2.0 | 9.0 | 0.00 | 0.75 | 0.75 | 97 | 1009.1 |
| 20260509233530 | 43 | 79 | 2.0 | 9.0 | 0.00 | 0.75 | 0.75 | 97 | 1009.2 |
| 20260509233048 | 43 | 65 | 4.0 | 9.0 | 0.00 | 0.75 | 0.75 | 96 | 1009.2 |
| 20260509232531 | 43 | 75 | 3.0 | 8.0 | 0.00 | 0.75 | 0.75 | 96 | 1009.1 |
| 20260509232031 | 43 | 108 | 3.0 | 7.0 | 0.00 | 0.75 | 0.75 | 96 | 1009.3 |
| 20260509231552 | 43 | 75 | 3.0 | 6.0 | 0.00 | 0.75 | 0.75 | 97 | 1009.1 |
| 20260509231028 | 43 | 78 | 2.0 | 7.0 | 0.00 | 0.75 | 0.75 | 97 | 1009.1 |
| 20260509230531 | 43 | 80 | 2.0 | 7.0 | 0.00 | 0.75 | 0.75 | 97 | 1009.1 |
| 20260509230045 | 43 | 103 | 2.0 | 7.0 | 0.00 | 0.75 | 0.75 | 96 | 1009.1 |
| 20260509225530 | 43 | 90 | 0.0 | 10.0 | 0.00 | 0.75 | 0.75 | 96 | 1009.2 |
| 20260509225032 | 43 | 89 | 2.0 | 10.0 | 0.00 | 0.75 | 0.75 | 96 | 1009.1 |
| 20260509224542 | 43 | 112 | 4.0 | 10.0 | 0.00 | 0.75 | 0.75 | 96 | 1009.1 |
| 20260509224030 | 43 | 96 | 2.0 | 8.0 | 0.00 | 0.75 | 0.75 | 96 | 1009.0 |
| 20260509223532 | 43 | 84 | 2.0 | 8.0 | 0.00 | 0.75 | 0.75 | 97 | 1009.1 |
| 20260509223047 | 43 | 107 | 2.0 | 6.0 | 0.00 | 0.75 | 0.75 | 96 | 1009.1 |
| 20260509222531 | 43 | 130 | 1.0 | 6.0 | 0.00 | 0.75 | 0.75 | 97 | 1009.1 |
| 20260509222028 | 43 | 74 | 2.0 | 6.0 | 0.00 | 0.75 | 0.75 | 97 | 1009.1 |
| 20260509221545 | 43 | 0 | 0.0 | 8.0 | 0.00 | 0.75 | 0.75 | 97 | 1009.0 |
| 20260509221031 | 42 | 0 | 2.0 | 9.0 | 0.00 | 0.75 | 0.75 | 96 | 1009.0 |
| 20260509220531 | 42 | 128 | 4.0 | 9.0 | 0.00 | 0.75 | 0.75 | 96 | 1009.0 |
| 20260509220044 | 42 | 145 | 2.0 | 8.0 | 0.00 | 0.75 | 0.75 | 96 | 1009.1 |
| 20260509215530 | 42 | 129 | 3.0 | 8.0 | 0.01 | 0.75 | 0.75 | 96 | 1009.1 |
| 20260509215028 | 42 | 88 | 2.0 | 7.0 | 0.01 | 0.75 | 0.75 | 96 | 1009.1 |
| 20260509214548 | 42 | 98 | 2.0 | 7.0 | 0.01 | 0.75 | 0.75 | 96 | 1009.1 |
| 20260509214028 | 42 | 115 | 2.0 | 6.0 | 0.01 | 0.75 | 0.75 | 96 | 1009.2 |
| 20260509213531 | 42 | 0 | 2.0 | 7.0 | 0.02 | 0.75 | 0.75 | 96 | 1009.4 |
| 20260509213101 | 42 | 96 | 2.0 | 8.0 | 0.02 | 0.75 | 0.75 | 96 | 1009.5 |
| 20260509212528 | 42 | 0 | 3.0 | 8.0 | 0.02 | 0.75 | 0.75 | 96 | 1009.4 |
| 20260509212028 | 41 | 113 | 2.0 | 7.0 | 0.03 | 0.75 | 0.75 | 96 | 1009.4 |
| 20260509211608 | 41 | 130 | 3.0 | 8.0 | 0.03 | 0.75 | 0.75 | 96 | 1009.5 |
| 20260509211032 | 41 | 134 | 3.0 | 9.0 | 0.03 | 0.75 | 0.75 | 96 | 1009.5 |
| 20260509210529 | 41 | 95 | 3.0 | 10.0 | 0.03 | 0.75 | 0.75 | 96 | 1009.6 |
| 20260509210044 | 41 | 121 | 4.0 | 10.0 | 0.04 | 0.75 | 0.75 | 96 | 1009.6 |
| 20260509205531 | 41 | 123 | 2.0 | 9.0 | 0.03 | 0.74 | 0.74 | 96 | 1009.6 |
| 20260509205031 | 41 | 133 | 2.0 | 9.0 | 0.04 | 0.74 | 0.74 | 96 | 1009.7 |
| 20260509204557 | 41 | 137 | 2.0 | 8.0 | 0.04 | 0.74 | 0.74 | 96 | 1009.7 |
| 20260509204032 | 41 | 112 | 3.0 | 11.0 | 0.05 | 0.74 | 0.74 | 96 | 1009.8 |
| 20260509203528 | 41 | 127 | 2.0 | 11.0 | 0.05 | 0.73 | 0.73 | 96 | 1009.8 |
| 20260509203052 | 41 | 146 | 1.0 | 9.0 | 0.05 | 0.73 | 0.73 | 96 | 1010.0 |
| 20260509202528 | 41 | 142 | 1.0 | 10.0 | 0.06 | 0.73 | 0.73 | 96 | 1010.0 |
| 20260509202028 | 41 | 201 | 2.0 | 10.0 | 0.05 | 0.72 | 0.72 | 96 | 1010.0 |
| 20260509201537 | 41 | 115 | 4.0 | 8.0 | 0.06 | 0.72 | 0.72 | 96 | 1010.0 |
| 20260509201030 | 41 | 123 | 2.0 | 9.0 | 0.06 | 0.72 | 0.72 | 96 | 1010.0 |
| 20260509200530 | 41 | 115 | 4.0 | 10.0 | 0.07 | 0.72 | 0.72 | 96 | 1010.0 |